Regional Weather Roundup
Issued by NWS Memphis, TN

Home | Current Version | Previous Version | Text Only | Print | Product List | Glossary On
Versions: 1 2 3 4 5 6 7 8 9 10 11 12 13 14 15 16 17 18 19 20 21 22 23 24 25 26 27 28 29 30 31 32 33 34 35 36 37 38 39 40 41 42 43 44 45 46 47 48 49 50
000
ASUS44 KMEG 201810
RWRMEG
MEMPHIS CWA HOURLY WEATHER ROUNDUP
NATIONAL WEATHER SERVICE MEMPHIS TN
100 PM CDT SUN APR 20 2014

...WEST TENNESSEE...

CITY           SKY/WX    TMP DP  RH WIND       PRES   REMARKS
MEMPHIS INTL   MOSUNNY   78  49  35 S6        30.18F
6HR MIN TEMP:  53; 6HR MAX TEMP:  78;

NWS MEMPHIS      N/A     79 N/A N/A MISG        N/A
JACKSON        MOSUNNY   77  44  30 VRB6      30.19F
6HR MIN TEMP:  44; 6HR MAX TEMP:  77;

LEXINGTON      SUNNY     75  46  35 S8        30.19F
SAVANNAH       MOSUNNY   75  48  38 CALM      30.20
DYERSBURG      MOSUNNY   77  46  33 S5        30.19F
6HR MIN TEMP:  52; 6HR MAX TEMP:  79;

UNION CITY     SUNNY     75  45  33 VRB5      30.18F
PARIS          SUNNY     76  41  28 SW5       30.19F


...EASTERN ARKANSAS...

CITY           SKY/WX    TMP DP  RH WIND       PRES   REMARKS
JONESBORO      SUNNY     77  42  28 W3        30.17F
6HR MIN TEMP:  51; 6HR MAX TEMP:  78;

WEST MEMPHIS   SUNNY     77  51  40 S9        30.17F
6HR MIN TEMP:  51; 6HR MAX TEMP:  77;

BATESVILLE     SUNNY     79  48  34 SE9       30.15F
6HR MIN TEMP:  50; 6HR MAX TEMP:  79;

NEWPORT        SUNNY     78  45  31 W6        30.18F
6HR MIN TEMP:  51; 6HR MAX TEMP:  78;

WALNUT RIDGE   MOSUNNY   75  48  38 S3        30.17F
6HR MIN TEMP:  50; 6HR MAX TEMP:  75;

BLYTHEVILLE    PTSUNNY   77  47  34 SW9       30.18F
6HR MIN TEMP:  54; 6HR MAX TEMP:  77;

SEARCY         SUNNY     78  50  37 VRB5      30.18F
6HR MIN TEMP:  49; 6HR MAX TEMP:  78;

STUTTGART      SUNNY     77  46  33 CALM      30.18F
6HR MIN TEMP:  54; 6HR MAX TEMP:  79;

PINE BLUFF     MOSUNNY   79  50  36 SE5       30.16F
6HR MIN TEMP:  53; 6HR MAX TEMP:  79;

MONTICELLO     PTSUNNY   79  45  29 SE9       30.15F
6HR MIN TEMP:  50; 6HR MAX TEMP:  79; 6HR PCP: TRACE;



...NORTH MISSISSIPPI...

CITY           SKY/WX    TMP DP  RH WIND       PRES   REMARKS
TUPELO         SUNNY     74  49  41 S5        30.20F
6HR MIN TEMP:  50; 6HR MAX TEMP:  75;

OXFORD         SUNNY     75  46  35 SW5       30.21F
OLIVE BRANCH   MOSUNNY   75  48  38 S9        30.20F
TUNICA         SUNNY     77  48  36 SE6       30.18F
CLARKSDALE       N/A     77  50  38 SE3       30.18F
CORINTH        SUNNY     75  45  33 CALM      30.20F
GRENADA        MOSUNNY   75  52  43 SE3       30.19F
GREENWOOD      MOSUNNY   77  50  38 SW3       30.18F
6HR MIN TEMP:  50; 6HR MAX TEMP:  77;

COLUMBUS       SUNNY     74  46  36 VRB2      30.20F
6HR MIN TEMP:  47; 6HR MAX TEMP:  74;

STARKVILLE     FAIR      72  50  46 SE3       30.20F
GOLDEN TRIANGL SUNNY     72  48  43 CALM      30.23F


...SOUTHEAST MISSOURI...

CITY           SKY/WX    TMP DP  RH WIND       PRES   REMARKS
DONIPHAN         N/A     77  42  28 SW7         N/A
WEST PLAINS    MOSUNNY   74  47  38 MISG      30.17F
6HR MIN TEMP:  50; 6HR MAX TEMP:  74;

POPLAR BLUFF   MOSUNNY   76  43  30 SW5       30.16F
6HR MIN TEMP:  50; 6HR MAX TEMP:  77;

CAPE GIRARDEAU MOSUNNY   76  47  35 VRB6      30.17F
6HR MIN TEMP:  46; 6HR MAX TEMP:  77;



...NORTHWEST ALABAMA...

CITY           SKY/WX    TMP DP  RH WIND       PRES   REMARKS
MUSCLE SHOALS  SUNNY     74  45  35 CALM      30.21F
6HR MIN TEMP:  47; 6HR MAX TEMP:  74;



...MIDDLE TENNESSEE...

CITY           SKY/WX    TMP DP  RH WIND       PRES   REMARKS
NASHVILLE      MOSUNNY   77  41  27 CALM      30.19F
6HR MIN TEMP:  46; 6HR MAX TEMP:  77;

CLARKSVILLE    SUNNY     76  38  25 CALM      30.19F
6HR MIN TEMP:  45; 6HR MAX TEMP:  77;

DICKSON        SUNNY     75  39  27 VRB5      30.19F
COLUMBIA       SUNNY     79  55  44 N3        30.18F
LEWISBURG      SUNNY     76  46  34 E6        30.19F


...WESTERN KENTUCKY...

CITY           SKY/WX    TMP DP  RH WIND       PRES   REMARKS
PADUCAH        MOSUNNY   78  42  27 NE5       30.18F
6HR MIN TEMP:  49; 6HR MAX TEMP:  78;

FORT CAMPBELL  SUNNY     75  37  25 VRB3      30.19F


...CENTRAL ARKANSAS...

CITY           SKY/WX    TMP DP  RH WIND       PRES   REMARKS
LITTLE ROCK    PTSUNNY   78  50  37 E10       30.16F
6HR MIN TEMP:  54; 6HR MAX TEMP:  79;



SKY/WX REPORTED AS FAIR MEANS FEW OR NO CLOUDS BELOW
12 THOUSAND FEET.




USA.gov is the U.S. government's official web portal to all federal, state and local government web resources and services.